Probability
22 25 29 29 30 34 39 39 36 36 35 30 25 23 23 22 18 14 12 8 4 3 5 10 14 17 16 12 13 15 13 9 7 6 6 3 1 2 7 10 12 14 15
23 25 28 29 31 35 40 41 38 36 35 31 27 26 24 21 17 16 15 10 5 4 5 9 12 15 14 12 12 14 14 11 8 7 6 4 2 1 5 9 12 13 14
21 23 26 30 33 38 41 42 40 38 35 31 28 26 23 19 17 17 16 11 7 5 5 7 9 11 11 11 12 14 15 14 12 10 8 7 5 2 3 8 11 11 11
18 19 24 31 37 39 40 40 40 39 37 33 29 26 21 18 16 16 15 12 8 5 5 5 6 8 10 11 12 13 15 16 16 13 10 8 7 4 4 6 9 9 8
17 18 23 31 36 37 37 38 37 37 36 34 31 26 21 17 15 14 13 12 11 7 5 4 4 6 10 11 11 12 14 16 16 14 10 7 7 7 5 4 5 5 5
17 21 27 31 34 35 35 34 33 32 31 30 28 25 19 16 14 12 11 11 12 9 6 4 5 8 10 11 10 10 12 14 14 12 9 7 7 7 6 3 1 1 2
17 22 28 31 32 34 33 30 27 25 23 23 22 19 15 14 13 12 11 10 9 8 6 5 6 8 9 8 8 8 8 9 9 8 8 7 5 6 6 4 1 0 0
15 19 24 27 27 27 25 23 21 19 17 17 17 15 14 14 13 14 12 10 7 5 4 5 6 8 8 7 5 5 5 5 5 5 6 6 5 5 5 4 2 1 0
15 17 20 22 21 20 17 15 15 14 14 14 13 14 14 15 14 14 13 9 6 4 4 5 7 7 7 6 4 3 3 3 4 4 5 7 6 5 5 4 3 1 0
16 17 17 17 18 16 13 12 11 13 14 14 14 14 15 15 14 14 12 10 7 5 4 5 6 6 5 5 4 3 3 3 4 4 5 7 7 6 5 5 3 1 0
14 13 12 12 13 11 10 10 10 12 13 14 15 15 15 14 13 13 12 10 8 4 3 3 3 3 3 3 3 3 3 3 3 4 4 5 5 5 4 4 3 1 0
9 8 7 8 7 6 6 8 9 10 10 10 11 13 13 11 10 11 10 9 6 3 1 1 1 1 1 3 3 3 3 3 3 3 3 3 4 4 3 3 1 0 0
6 4 5 7 6 4 4 5 7 6 6 5 6 8 9 8 8 7 6 5 4 1 0 0 0 0 1 2 3 2 2 3 3 3 3 3 4 4 3 1 0 0 0
2 2 3 5 6 5 3 4 5 5 5 4 5 6 6 6 6 5 4 3 2 1 0 0 0 0 0 1 1 1 1 2 3 3 3 3 3 3 1 0 0 0 1
1 1 1 2 5 6 4 4 4 5 6 6 6 6 6 6 6 5 4 3 2 1 0 0 0 0 0 0 0 0 0 1 1 3 3 3 2 1 0 0 0 1 2
1 0 0 0 2 4 5 4 3 3 4 5 6 6 6 5 5 4 2 1 1 0 0 0 0 0 0 0 0 0 0 0 1 2 2 2 1 0 0 0 0 1 2
1 1 1 0 1 2 3 3 2 2 2 3 4 5 4 2 2 1 1 1 0 0 0 0 0 0 0 0 0 0 0 0 0 1 1 1 0 0 0 0 0 0 1
2 2 1 0 0 1 2 1 1 1 1 1 2 3 3 1 0 0 0 0 0 0 0 0 0 0 0 0 0 0 0 0 0 0 0 0 0 0 0 0 0 0 0
2 2 1 0 0 1 1 0 0 0 0 0 1 2 3 1 0 0 0 0 0 0 0 0 0 0 0 0 0 0 0 0 0 0 0 0 0 0 0 0 0 0 0
1 1 0 0 0 0 0 0 0 0 0 0 0 1 2 2 1 1 0 0 0 1 0 0 0 0 0 0 0 0 0 0 0 0 0 0 0 0 0 0 0 0 0
0 0 0 0 0 0 0 0 0 0 0 0 0 0 1 2 2 2 1 0 0 0 0 0 0 0 0 0 0 0 0 0 0 0 0 0 0 0 0 0 0 0 0
0 0 0 0 0 0 0 1 1 1 0 0 0 0 0 2 3 3 2 1 0 0 0 0 0 0 0 0 0 0 0 0 0 0 0 0 0 0 0 0 0 0 0
0 0 0 0 0 0 1 2 2 1 0 0 0 0 1 2 3 3 3 2 1 0 0 0 0 0 1 1 1 0 0 0 0 0 0 0 0 0 0 0 0 0 0
0 0 0 0 0 0 1 1 1 0 0 0 0 0 1 2 3 3 3 2 1 0 0 0 0 0 1 1 1 0 0 0 0 0 0 0 0 0 0 1 1 1 1
0 0 0 0 1 1 0 0 0 0 0 0 0 0 0 1 2 2 2 2 1 0 0 0 0 0 0 0 0 0 0 0 0 0 0 0 0 0 1 2 2 2 1
0 0 0 1 2 2 1 0 0 0 0 0 0 0 0 0 1 1 1 1 0 0 0 0 0 0 0 0 0 0 0 0 0 0 0 0 0 0 1 2 3 1 0
Wind_Speed
5 5 5 6 6 6 7 7 6 6 5 4 4 3 3 2 2 2 2 2 2 2 3 3 2 3 2 3 4 4 4 4 4 5 5 5 6 5 4 4 4 5 5
5 5 5 6 6 6 7 7 7 6 6 4 3 2 2 1 1 1 1 2 2 2 3 3 3 2 2 3 3 3 4 3 3 4 6 5 3 3 3 3 4 4 4
5 5 5 6 6 7 7 6 6 6 5 5 4 3 3 2 2 2 2 2 2 2 2 3 3 3 4 2 3 4 4 4 3 3 4 5 4 4 2 3 3 3 3
5 5 5 6 6 6 6 6 6 6 6 5 5 5 3 2 2 2 1 2 2 3 3 3 3 4 3 3 4 3 4 5 4 2 3 4 5 5 4 3 3 4 4
4 4 5 5 5 5 5 5 5 5 6 5 5 5 3 2 1 2 2 2 2 3 3 3 3 4 3 3 4 4 5 4 5 4 3 4 4 6 5 5 4 4 3
2 3 4 4 4 4 5 5 6 5 6 5 5 4 3 2 2 2 2 3 2 2 3 3 3 4 3 3 4 4 5 4 5 5 4 4 4 4 5 5 5 5 4
1 2 4 4 4 5 5 5 6 5 5 5 4 4 4 4 4 3 3 3 2 2 3 3 4 4 3 3 4 4 5 5 5 5 5 4 5 4 4 5 5 6 5
1 1 3 4 4 5 5 5 5 5 4 4 4 4 4 4 3 3 3 3 3 2 3 4 4 4 4 4 3 4 4 4 5 5 5 5 4 4 4 4 4 5 5
3 2 2 3 3 4 4 5 5 5 5 4 4 4 4 3 2 2 3 3 2 3 3 3 3 3 3 4 4 4 5 5 5 5 4 5 4 4 4 4 4 5 6
3 3 2 2 2 2 3 3 4 4 4 4 3 3 3 3 3 3 2 2 3 3 3 3 3 3 3 4 4 5 4 5 5 4 5 5 4 4 4 4 4 4 5
3 3 2 2 2 1 2 3 3 3 3 3 2 2 3 3 3 3 3 2 2 3 3 3 3 3 3 3 3 5 4 5 5 5 5 5 5 4 4 4 4 4 4
3 3 3 2 2 1 1 2 2 2 2 2 2 2 2 2 2 2 2 2 2 2 2 3 3 3 3 3 4 5 5 5 6 6 5 5 4 4 4 4 4 4 5
4 4 3 2 1 0 1 1 2 2 2 2 2 2 2 1 1 1 1 2 2 2 2 2 2 3 4 4 4 5 5 5 5 6 6 5 5 5 4 5 5 4 4
3 3 2 2 1 0 1 1 1 1 2 2 2 2 2 1 1 1 1 1 1 2 2 2 3 3 4 4 4 4 5 5 5 5 6 6 5 5 5 5 5 5 5
3 3 2 2 1 1 1 1 1 2 2 2 3 2 2 1 1 1 1 1 2 2 2 2 3 3 3 3 4 5 5 5 5 5 5 5 4 5 5 5 5 6 5
3 3 3 2 2 1 1 1 1 2 2 3 3 2 2 2 2 2 2 2 2 2 2 3 3 3 3 2 4 6 6 5 5 5 5 5 4 4 6 7 8 8 7
3 3 3 3 2 2 2 2 2 2 2 3 3 3 2 2 2 2 1 2 2 2 2 3 3 3 3 2 4 5 6 6 5 5 5 5 3 4 4 4 7 8 9
4 3 3 3 3 2 1 2 2 2 2 2 3 3 2 2 3 2 2 2 2 2 2 3 3 3 3 2 4 6 5 4 4 4 4 4 4 4 4 6 6 6 4
4 3 3 3 2 2 1 2 2 3 2 2 2 3 3 3 3 2 2 2 2 2 2 2 3 3 3 3 4 6 4 3 4 4 4 4 4 2 3 5 6 6 5
4 3 3 3 2 2 2 2 3 3 2 2 2 2 2 2 2 2 2 2 2 2 2 2 3 3 4 3 3 5 4 3 4 3 3 2 2 2 3 5 6 6 6
5 4 4 3 2 2 2 3 3 3 2 2 2 2 2 2 2 2 2 2 2 2 2 3 3 3 3 2 2 3 4 4 4 4 4 2 1 2 4 5 6 6 7
5 4 3 3 2 2 3 3 3 2 2 2 2 2 2 2 2 2 2 2 2 3 3 3 3 2 2 1 1 2 4 5 5 4 4 3 2 5 6 6 5 6 8
4 4 3 3 2 2 3 3 2 2 2 2 2 2 2 2 2 3 3 3 3 3 3 2 2 2 1 1 3 4 5 5 5 4 4 6 6 7 6 7 8 8 6
4 3 3 3 2 2 2 3 2 3 3 2 2 3 3 3 3 3 3 2 2 2 2 2 2 2 2 2 2 2 2 4 5 4 5 8 10 9 7 6 5 5 4
3 3 3 3 3 2 2 2 2 3 3 2 2 3 3 2 2 2 2 2 1 2 3 3 3 3 3 4 6 5 5 5 4 5 4 4 4 4 3 3 3 3 3
4 3 3 4 3 3 3 3 3 3 3 2 3 2 2 2 2 2 1 1 1 0 1 3 5 3 3 5 6 6 6 7 7 5 4 4 4 5 5 5 4 3 4
Wind_Direction
192 187 185 187 182 179 178 180 179 170 176 180 188 188 190 197 197 188 191 223 238 242 255 270 248 261 275 293 301 295 290 289 296 285 280 262 249 259 263 265 271 270 272
189 186 186 185 187 185 184 182 181 178 182 179 188 190 187 202 199 205 187 227 235 248 250 267 266 268 268 268 286 289 293 294 296 297 293 281 242 235 260 263 260 273 275
196 189 189 188 188 187 187 182 182 182 181 176 174 164 173 190 192 194 195 220 235 237 265 264 274 272 270 277 281 278 280 285 280 282 293 300 308 318 265 276 275 276 277
197 192 187 188 189 187 180 179 178 176 174 178 179 186 194 200 197 218 209 224 235 243 242 255 267 273 277 276 273 284 279 276 279 269 264 284 307 295 297 285 288 285 276
196 194 189 185 181 176 172 173 172 171 173 179 180 196 204 201 192 198 194 240 229 238 240 247 252 262 268 276 281 284 279 275 279 283 281 277 270 265 282 294 302 298 293
181 175 171 166 158 164 170 169 168 171 174 179 183 192 193 201 207 211 205 224 223 233 242 257 254 258 268 264 269 276 270 273 274 273 273 276 282 283 283 289 296 302 303
117 151 161 159 159 163 168 167 167 170 177 184 190 193 198 206 209 225 217 240 245 244 250 267 259 263 266 265 272 274 281 273 265 264 270 272 274 287 285 287 297 301 298
88 137 154 160 169 162 161 167 171 172 179 187 194 199 205 217 214 228 255 250 265 271 277 269 265 267 267 267 268 271 274 270 266 266 270 273 275 282 282 285 291 295 294
47 73 124 150 169 167 168 175 172 175 183 188 193 198 209 233 238 231 239 250 263 268 271 275 272 273 272 270 266 268 275 277 270 267 260 267 274 270 276 275 272 277 291
40 58 81 112 129 154 160 169 175 188 187 186 191 194 212 228 233 241 248 256 262 275 271 276 278 276 272 267 268 266 271 274 270 271 276 275 282 284 277 273 261 254 265
33 54 80 94 94 97 150 167 175 183 188 189 190 205 220 223 229 237 245 253 269 266 266 272 268 262 265 266 265 272 273 272 275 272 270 272 275 280 281 280 270 261 261
32 46 65 85 99 126 157 181 173 179 184 176 185 211 225 220 228 242 271 276 272 272 280 280 274 268 265 265 266 271 270 271 274 275 274 273 271 266 269 279 278 273 262
40 41 56 67 73 135 165 185 192 186 180 179 191 199 212 214 232 263 279 287 285 289 293 286 275 277 277 273 269 269 271 271 272 276 276 275 276 276 280 280 283 280 275
35 31 37 38 8 285 211 204 203 202 185 195 209 208 209 217 238 252 266 271 285 283 279 278 277 280 281 283 283 276 274 276 275 275 274 273 273 276 279 276 278 282 284
13 10 2 4 346 325 261 218 205 226 207 211 219 214 210 225 241 244 251 268 280 282 280 278 280 284 282 300 303 289 279 278 278 279 276 276 269 271 271 282 287 288 283
351 345 338 342 334 326 297 272 230 225 221 219 226 214 214 223 227 225 233 255 278 293 293 287 290 289 300 344 309 295 288 284 281 281 283 280 251 248 239 246 259 269 275
333 329 326 320 321 314 288 275 268 230 222 227 230 221 209 216 225 226 244 266 280 289 294 299 302 299 325 322 293 288 288 288 287 285 283 285 299 286 287 259 239 244 242
332 325 324 319 311 300 272 284 274 242 221 231 238 224 214 219 222 224 237 258 264 273 287 291 296 303 325 316 292 289 273 282 286 282 277 283 297 311 308 295 291 285 270
321 310 308 305 295 282 265 271 269 247 226 227 245 232 219 222 225 231 236 245 254 266 276 287 298 303 312 316 302 295 286 290 297 295 290 283 288 346 320 290 292 294 291
315 307 300 298 286 271 259 259 259 247 236 241 250 242 224 226 236 244 249 252 257 269 284 300 296 298 306 323 302 292 286 299 299 295 284 236 265 337 316 289 289 289 299
299 296 293 288 284 271 259 264 262 254 247 248 250 234 221 229 238 242 243 252 261 276 284 290 286 287 295 287 272 279 286 304 308 314 316 357 115 288 288 277 276 285 297
300 297 292 282 260 242 247 259 268 264 247 235 237 231 227 238 228 233 243 246 253 249 253 260 271 271 259 278 260 241 259 288 291 296 310 342 340 298 284 271 264 271 273
296 293 288 280 264 249 251 256 266 258 236 222 221 228 228 234 238 236 239 238 233 258 271 275 288 308 331 150 203 225 241 253 267 293 312 298 281 278 265 238 248 258 262
292 286 281 277 275 270 262 257 256 243 224 220 221 223 226 227 225 242 243 250 259 270 287 301 313 323 321 333 344 313 274 234 242 272 272 252 252 249 262 268 245 253 278
295 295 292 286 280 283 274 264 251 225 215 219 221 226 228 225 236 243 274 280 320 336 310 318 319 321 321 5 353 320 316 322 333 314 286 285 289 287 287 289 295 293 284
281 277 276 278 275 276 273 260 236 216 214 221 228 234 230 221 238 231 207 118 252 163 256 287 301 318 317 319 318 312 299 291 291 286 291 304 309 314 320 319 312 302 300